When you browse on this site, cookies collect data to enhance your experience and personalize the content and advertising you see.
Visit our Privacy Policy to learn more. By continuing to use the site, you agree to this use of cookies and data.
  • In France
  • List of Countries
  • For 7 days
  • Water Temperature
  • Weather Map
  • Weather Widgets
  • user-avatar
    Login

    Hourly Weather Nottingham

    Today, 11 December, Wednesday

    Time Temperature Precipitation Wind Pressure Humidity
    00:00 +3°C° 0 mm 6 mps 747 mmHg 81%
    01:00 +3°C° 0 mm 5 mps 748 mmHg 82%
    02:00 +3°C° 0 mm 5 mps 748 mmHg 83%
    03:00 +3°C° 0 mm 5 mps 748 mmHg 83%
    04:00 +3°C° 0 mm 4 mps 747 mmHg 85%
    05:00 +3°C° 0 mm 4 mps 747 mmHg 86%
    06:00 +3°C° 0 mm 4 mps 747 mmHg 87%
    07:00 +2°C° 0 mm 5 mps 747 mmHg 86%
    08:00 +2°C° 0 mm 5 mps 746 mmHg 85%
    09:00 +2°C° 0 mm 5 mps 746 mmHg 84%
    10:00 +3°C° 0 mm 5 mps 745 mmHg 82%
    11:00 +5°C° 0 mm 5 mps 745 mmHg 80%
    12:00 +6°C° 0 mm 5 mps 744 mmHg 78%
    13:00 +5°C° 0.3 mm 5 mps 744 mmHg 81%
    14:00 +5°C° 0.3 mm 5 mps 743 mmHg 84%
    15:00 +3°C° 0.3 mm 5 mps 743 mmHg 87%
    16:00 +2°C° 0.1 mm 5 mps 743 mmHg 87%
    17:00 +3°C° 0.1 mm 4 mps 743 mmHg 87%
    18:00 +2°C° 0.1 mm 3 mps 743 mmHg 87%
    19:00 +2°C° 0 mm 3 mps 744 mmHg 87%
    20:00 +1°C° 0 mm 4 mps 744 mmHg 87%
    21:00 0°C° 0 mm 4 mps 744 mmHg 87%
    22:00 0°C° 0 mm 4 mps 745 mmHg 86%
    23:00 0°C° 0 mm 4 mps 745 mmHg 86%

    Tomorrow, 12 December, Thursday

    Time Temperature Precipitation Wind Pressure Humidity
    00:00 0°C° 0 mm 4 mps 745 mmHg 85%
    01:00 0°C° 0 mm 4 mps 744 mmHg 86%
    02:00 0°C° 0 mm 4 mps 744 mmHg 87%
    03:00 -1°C° 0 mm 4 mps 744 mmHg 88%
    04:00 -1°C° 0 mm 4 mps 743 mmHg 88%
    05:00 -1°C° 0 mm 4 mps 743 mmHg 88%
    06:00 0°C° 0 mm 3 mps 742 mmHg 87%
    07:00 0°C° 0 mm 4 mps 741 mmHg 87%
    08:00 0°C° 0 mm 5 mps 740 mmHg 86%
    09:00 0°C° 0 mm 5 mps 739 mmHg 85%
    10:00 +1°C° 0.2 mm 6 mps 737 mmHg 86%
    11:00 +2°C° 0.2 mm 7 mps 736 mmHg 87%
    12:00 +2°C° 0.2 mm 8 mps 734 mmHg 88%
    13:00 +3°C° 2 mm 7 mps 732 mmHg 90%
    14:00 +4°C° 2 mm 7 mps 731 mmHg 92%
    15:00 +4°C° 2 mm 7 mps 729 mmHg 94%
    16:00 +4°C° 1.1 mm 6 mps 728 mmHg 94%
    17:00 +5°C° 1.1 mm 5 mps 727 mmHg 94%
    18:00 +5°C° 1.1 mm 4 mps 726 mmHg 94%
    19:00 +5°C° 0.1 mm 4 mps 725 mmHg 93%
    20:00 +4°C° 0.1 mm 4 mps 725 mmHg 91%
    21:00 +4°C° 0.1 mm 4 mps 724 mmHg 90%
    22:00 +3°C° 0 mm 5 mps 723 mmHg 88%
    23:00 +3°C° 0 mm 5 mps 723 mmHg 86%

    Day after tomorrow, 13 December, Friday

    Time Temperature Precipitation Wind Pressure Humidity
    00:00 +2°C° 0 mm 5 mps 723 mmHg 84%
    01:00 +2°C° 0.7 mm 6 mps 722 mmHg 87%
    02:00 +2°C° 0.7 mm 6 mps 722 mmHg 91%
    03:00 +2°C° 0.7 mm 6 mps 722 mmHg 94%
    04:00 +2°C° 1.2 mm 7 mps 723 mmHg 93%
    05:00 +3°C° 1.2 mm 7 mps 723 mmHg 92%
    06:00 +2°C° 1.2 mm 8 mps 724 mmHg 90%
    07:00 +3°C° 0.3 mm 7 mps 725 mmHg 88%
    08:00 +3°C° 0.3 mm 6 mps 726 mmHg 86%
    09:00 +3°C° 0.3 mm 5 mps 726 mmHg 83%
    10:00 +3°C° 0 mm 6 mps 727 mmHg 83%
    11:00 +4°C° 0 mm 6 mps 728 mmHg 82%
    12:00 +5°C° 0 mm 7 mps 729 mmHg 82%
    13:00 +5°C° 0 mm 7 mps 730 mmHg 80%
    14:00 +5°C° 0 mm 7 mps 731 mmHg 78%
    15:00 +5°C° 0 mm 7 mps 731 mmHg 76%
    16:00 +4°C° 0 mm 6 mps 732 mmHg 77%
    17:00 +3°C° 0 mm 6 mps 732 mmHg 78%
    18:00 +2°C° 0 mm 5 mps 733 mmHg 78%
    19:00 +2°C° 0 mm 5 mps 733 mmHg 80%
    20:00 +2°C° 0 mm 5 mps 733 mmHg 83%
    21:00 +2°C° 0 mm 5 mps 732 mmHg 85%
    22:00 +2°C° 0.4 mm 6 mps 731 mmHg 87%
    23:00 +2°C° 0.4 mm 7 mps 729 mmHg 88%

    14 December, Saturday

    Time Temperature Precipitation Wind Pressure Humidity
    00:00 +2°C° 0.4 mm 7 mps 728 mmHg 90%
    01:00 +2°C° 0.1 mm 9 mps 727 mmHg 85%
    02:00 +2°C° 0.1 mm 11 mps 727 mmHg 79%
    03:00 +3°C° 0.1 mm 12 mps 726 mmHg 73%
    04:00 +1°C° 0 mm 13 mps 727 mmHg 72%
    05:00 +1°C° 0 mm 14 mps 728 mmHg 70%
    06:00 +1°C° 0 mm 14 mps 729 mmHg 69%
    07:00 0°C° 0 mm 13 mps 730 mmHg 68%
    08:00 +1°C° 0 mm 11 mps 731 mmHg 67%
    09:00 +1°C° 0 mm 10 mps 733 mmHg 66%
    10:00 +1°C° 0 mm 10 mps 733 mmHg 64%
    11:00 +1°C° 0 mm 10 mps 734 mmHg 62%
    12:00 +2°C° 0 mm 9 mps 735 mmHg 60%
    13:00 +1°C° 0 mm 9 mps 735 mmHg 61%
    14:00 +1°C° 0 mm 9 mps 735 mmHg 63%
    15:00 +1°C° 0 mm 8 mps 736 mmHg 64%
    16:00 0°C° 0 mm 8 mps 736 mmHg 64%
    17:00 -1°C° 0 mm 8 mps 737 mmHg 64%
    18:00 -1°C° 0 mm 7 mps 737 mmHg 63%
    19:00 -1°C° 0 mm 7 mps 737 mmHg 63%
    20:00 -2°C° 0 mm 6 mps 738 mmHg 63%
    21:00 -2°C° 0 mm 6 mps 738 mmHg 63%
    22:00 -1°C° 0 mm 5 mps 738 mmHg 64%
    23:00 -1°C° 0 mm 5 mps 738 mmHg 65%

    15 December, Sunday

    Time Temperature Precipitation Wind Pressure Humidity
    00:00 -1°C° 0 mm 4 mps 737 mmHg 67%
    01:00 -1°C° 1.3 mm 4 mps 736 mmHg 77%
    02:00 -2°C° 1.3 mm 4 mps 734 mmHg 87%
    03:00 -2°C° 1.3 mm 4 mps 733 mmHg 97%
    04:00 -2°C° 1.8 mm 4 mps 733 mmHg 97%
    05:00 0°C° 1.8 mm 3 mps 733 mmHg 98%
    06:00 0°C° 1.8 mm 3 mps 733 mmHg 98%
    07:00 -1°C° 0.5 mm 4 mps 734 mmHg 95%
    08:00 -1°C° 0.5 mm 5 mps 736 mmHg 92%
    09:00 -2°C° 0.5 mm 6 mps 738 mmHg 89%
    10:00 -2°C° 0 mm 6 mps 739 mmHg 87%
    11:00 -1°C° 0 mm 7 mps 740 mmHg 85%
    12:00 -1°C° 0 mm 7 mps 742 mmHg 83%
    13:00 -1°C° 0 mm 6 mps 742 mmHg 84%
    14:00 -1°C° 0 mm 6 mps 742 mmHg 84%
    15:00 0°C° 0 mm 5 mps 742 mmHg 85%
    16:00 -1°C° 0.2 mm 6 mps 742 mmHg 89%
    17:00 -1°C° 0.2 mm 6 mps 742 mmHg 93%
    18:00 -1°C° 0.2 mm 7 mps 742 mmHg 97%
    19:00 -1°C° 0 mm 6 mps 742 mmHg 95%
    20:00 -1°C° 0 mm 6 mps 742 mmHg 93%
    21:00 -1°C° 0 mm 6 mps 742 mmHg 91%
    22:00 -1°C° 0 mm 6 mps 743 mmHg 89%
    23:00 -1°C° 0 mm 6 mps 743 mmHg 87%

    16 December, Monday

    Time Temperature Precipitation Wind Pressure Humidity
    00:00 -1°C° 0 mm 6 mps 743 mmHg 86%
    01:00 -1°C° 0 mm 6 mps 743 mmHg 86%
    02:00 -1°C° 0 mm 6 mps 743 mmHg 86%
    03:00 -1°C° 0 mm 6 mps 743 mmHg 87%
    04:00 -1°C° 0 mm 6 mps 743 mmHg 86%
    05:00 0°C° 0 mm 5 mps 743 mmHg 86%
    06:00 0°C° 0 mm 5 mps 743 mmHg 85%
    07:00 0°C° 0 mm 5 mps 743 mmHg 86%
    08:00 0°C° 0 mm 5 mps 743 mmHg 86%
    09:00 0°C° 0 mm 5 mps 743 mmHg 87%
    10:00 +1°C° 0 mm 5 mps 742 mmHg 87%
    11:00 +1°C° 0 mm 5 mps 742 mmHg 87%
    12:00 +2°C° 0 mm 5 mps 742 mmHg 87%
    13:00 +2°C° 0 mm 5 mps 742 mmHg 87%
    14:00 +2°C° 0 mm 5 mps 742 mmHg 87%
    15:00 +3°C° 0 mm 4 mps 742 mmHg 88%
    16:00 +1°C° 0 mm 4 mps 742 mmHg 89%
    17:00 +1°C° 0 mm 3 mps 743 mmHg 90%
    18:00 +1°C° 0 mm 3 mps 743 mmHg 91%
    19:00 +1°C° 0 mm 2 mps 743 mmHg 90%
    20:00 +1°C° 0 mm 2 mps 744 mmHg 89%
    21:00 +1°C° 0 mm 1 mps 744 mmHg 89%
    22:00 +1°C° 0 mm 1 mps 744 mmHg 88%
    23:00 +1°C° 0 mm 1 mps 744 mmHg 88%
    Show more